Wind_Speed
39 42 42 36 29 23 24 20 15 15 13 11 4 2 6 4 7 7 12 16 16 14 15 12 5 10 10 16 21 33 31 11 15 21 11 23 25 21 27 8 4 3 1 2
37 40 41 39 32 25 23 21 16 16 13 9 4 2 4 5 4 9 7 14 11 10 12 4 9 11 18 7 21 23 32 13 13 5 10 19 26 28 27 33 17 12 4 2
36 39 40 39 32 25 23 19 16 15 14 12 10 5 5 6 3 5 8 8 7 5 4 9 12 10 12 14 2 13 20 15 14 8 15 26 27 30 30 27 12 12 10 7
35 39 39 39 32 25 25 20 18 16 14 11 8 10 10 7 5 2 6 3 10 15 8 4 10 12 6 9 11 10 9 6 7 10 7 26 33 33 37 39 34 12 14 16
34 38 41 40 32 24 22 22 20 18 15 14 10 7 9 9 8 8 6 7 8 10 9 8 10 9 7 7 9 9 8 8 7 8 8 14 21 29 33 32 38 29 18 16
32 36 39 41 34 27 24 22 21 19 16 12 10 8 10 10 13 3 5 8 7 6 6 3 3 5 7 6 6 4 4 8 4 3 7 6 7 26 32 30 34 34 28 22
29 35 38 41 37 28 23 21 22 21 18 11 11 9 12 11 9 9 3 5 7 5 7 2 1 2 4 7 3 1 4 4 3 8 11 1 3 10 25 24 25 24 25 22
27 32 38 40 38 29 23 22 22 19 19 9 14 15 10 8 10 8 6 6 5 3 5 3 3 3 2 4 3 1 3 3 2 5 5 2 1 4 17 23 24 23 23 18
24 29 35 36 36 29 24 23 22 20 18 18 15 9 15 16 11 8 6 6 4 4 4 3 2 2 3 2 2 2 2 3 2 4 2 2 2 4 8 11 16 16 19 18
22 26 29 35 34 28 25 24 22 20 14 18 18 24 22 17 14 10 7 4 5 3 3 2 2 1 3 1 3 3 2 1 2 4 1 1 4 6 10 7 3 5 11 13
20 23 27 32 35 29 24 23 23 25 16 17 23 20 14 9 9 7 6 2 2 3 2 1 2 2 3 2 3 2 2 1 1 1 1 1 4 8 7 1 2 4 9 11
18 21 26 30 35 32 23 23 24 27 23 17 19 17 14 10 9 7 6 6 2 4 2 2 1 3 3 4 1 1 1 1 1 1 0 2 7 6 7 2 3 5 6 8
16 20 24 28 33 33 25 22 26 26 24 20 9 19 17 16 14 11 10 11 6 2 3 3 2 2 4 3 2 3 1 2 2 1 3 3 7 5 7 5 6 5 5 6
15 19 22 27 31 31 25 23 28 27 29 16 23 18 14 12 12 14 12 15 14 7 8 3 4 4 4 4 5 7 5 4 3 4 2 4 6 7 7 6 7 7 8 8
14 18 22 26 29 28 22 22 25 27 24 23 12 11 8 11 9 10 14 14 17 16 11 8 5 6 7 8 10 6 5 6 5 3 4 5 4 7 8 8 8 8 9 9
13 18 21 24 27 25 19 21 17 18 21 19 12 16 16 15 5 8 11 14 16 17 14 8 8 6 8 7 4 0 4 1 4 4 7 6 8 9 9 9 10 11 12 14
11 17 21 23 26 23 17 17 9 10 17 23 10 13 18 21 10 3 5 10 13 17 16 13 12 10 10 14 16 10 12 9 8 8 9 9 10 12 14 15 17 18 18 17
11 16 21 23 24 21 15 12 5 10 13 12 13 10 14 17 11 6 2 4 9 14 15 12 12 10 12 11 8 3 6 8 8 9 10 11 13 14 15 16 19 21 21 21
12 16 20 22 23 23 14 8 7 6 12 10 14 19 12 15 12 5 3 0 6 11 17 17 14 16 12 8 10 8 6 9 13 15 16 15 16 16 17 19 20 18 18 19
12 15 20 24 25 22 13 7 6 7 6 13 22 24 22 18 8 3 3 7 7 6 10 12 16 25 20 21 20 20 22 21 21 21 20 20 20 20 22 21 21 20 20 20
13 14 18 21 23 17 6 3 4 5 5 11 24 26 27 25 11 3 5 3 5 5 9 8 7 16 8 10 14 16 17 17 18 18 17 18 19 23 24 20 21 22 22 22
13 14 18 20 12 4 2 2 3 5 3 19 25 26 26 21 6 3 3 6 5 5 6 8 7 14 11 9 8 11 12 14 16 18 18 17 18 19 18 17 17 17 18 18
14 14 14 8 5 4 3 2 4 10 18 22 25 26 22 9 4 5 5 5 6 4 6 5 9 6 8 10 10 8 9 9 8 8 9 9 7 7 7 7 7 8 10 11
13 8 9 5 5 5 7 8 13 17 19 19 21 23 16 16 10 8 6 6 6 5 6 7 11 9 9 10 8 7 6 4 2 2 2 3 3 3 2 3 5 8 9 9
12 6 4 6 8 12 13 15 17 19 20 21 22 22 14 11 10 6 7 5 6 6 6 9 11 8 8 8 9 9 8 5 3 2 1 1 4 6 8 10 11 13 14 14
12 9 9 11 13 16 16 18 18 18 20 19 20 17 6 5 6 6 7 4 4 4 8 12 13 14 13 12 12 13 12 9 6 6 5 5 9 12 15 17 18 17 16 14
8 9 11 14 17 16 16 18 19 19 17 15 13 6 5 10 7 5 4 3 3 4 6 9 12 13 13 12 12 16 15 12 10 8 7 9 13 17 16 13 11 10 10 11
Wind_Direction
12 11 12 9 7 2 358 359 356 354 357 347 14 35 349 21 32 14 9 9 1 12 7 13 314 316 348 183 197 200 209 226 171 183 189 204 212 210 202 209 192 225 220 148
13 12 13 10 4 1 3 2 358 4 4 347 14 331 35 332 348 25 19 7 1 43 12 2 19 20 31 140 175 189 202 208 153 203 194 191 203 215 216 216 256 239 155 167
10 11 11 8 4 2 5 8 8 358 359 349 1 337 325 351 337 26 338 346 350 10 10 30 19 50 23 39 141 178 167 164 186 200 206 192 200 204 205 206 227 225 223 232
9 11 10 7 3 359 9 10 6 12 359 357 0 351 346 329 318 307 330 16 14 12 0 7 30 39 64 41 28 133 160 154 148 156 179 206 202 205 203 215 231 245 250 264
6 6 8 7 4 5 356 5 11 8 3 357 354 359 357 338 310 307 27 358 4 7 12 14 359 27 54 43 30 41 94 136 154 94 151 189 205 214 210 226 221 237 250 268
1 2 6 5 2 4 9 7 5 10 4 3 12 349 347 334 336 293 7 347 333 334 347 349 350 25 37 35 41 78 167 149 149 82 117 146 212 217 219 225 224 231 241 248
2 1 4 2 2 4 6 360 1 4 6 5 357 349 336 333 331 305 324 307 336 293 319 311 326 338 20 21 360 43 165 143 90 132 140 160 242 222 217 224 227 228 233 244
1 4 3 358 359 359 0 358 355 1 355 352 343 327 332 330 313 313 316 272 300 310 332 306 314 332 16 23 16 195 184 198 127 161 201 294 209 190 194 203 223 229 236 239
3 7 1 356 356 354 355 350 347 354 348 349 355 357 340 332 327 299 286 283 250 322 342 323 11 13 347 11 3 24 228 228 223 170 168 195 178 181 195 212 247 233 227 224
1 7 0 356 354 352 351 351 346 340 346 336 341 330 322 314 310 299 307 212 235 296 321 313 344 38 360 23 12 355 5 223 208 178 169 148 160 163 172 181 302 210 206 217
357 5 3 355 353 353 346 347 345 333 322 325 329 336 329 328 299 294 277 280 290 292 319 316 333 348 11 8 360 18 31 28 134 199 283 60 161 159 162 233 301 178 196 208
354 1 1 354 350 350 345 342 341 337 327 316 314 341 327 317 294 267 235 236 64 40 347 311 312 325 325 323 340 23 164 103 131 180 169 139 168 183 199 118 136 169 200 227
352 359 356 351 348 348 345 340 338 333 329 336 309 325 300 290 268 269 246 234 231 203 246 274 293 302 312 312 299 299 317 287 255 224 209 199 182 178 186 189 197 210 221 257
347 352 348 349 347 349 344 337 338 337 332 334 336 311 291 292 268 257 244 234 217 198 207 210 281 286 301 298 284 277 269 269 269 239 211 177 187 192 199 217 237 247 252 259
337 346 343 348 345 347 347 339 345 347 342 338 17 20 350 324 289 246 235 233 225 219 235 254 269 285 295 297 294 294 255 244 250 262 246 237 242 222 234 256 251 252 258 262
334 341 342 344 343 347 344 346 4 15 14 16 36 23 22 12 322 246 234 227 229 222 227 246 256 274 284 287 291 249 87 311 241 253 238 238 236 247 254 257 262 266 270 265
326 332 337 342 344 346 337 339 351 21 39 40 31 21 18 13 19 308 255 226 229 226 236 250 264 267 275 267 267 277 277 269 257 265 259 254 251 255 260 264 269 273 274 268
314 323 334 341 342 337 331 331 341 15 43 49 37 20 15 5 8 28 1 244 229 227 238 255 264 260 272 272 281 254 245 245 256 275 274 269 264 266 269 274 278 276 271 267
311 315 334 338 338 334 333 315 284 325 18 50 11 11 11 5 356 318 328 235 234 235 242 248 258 262 241 259 256 251 255 270 272 276 275 272 269 266 269 279 285 289 285 277
299 312 331 336 333 328 324 304 291 291 335 359 360 354 355 356 355 281 185 235 235 253 257 253 257 260 261 256 258 265 275 276 272 272 270 267 264 264 273 275 272 275 279 280
293 312 323 327 325 320 319 296 313 312 333 338 341 342 341 345 331 265 233 253 232 247 248 203 243 265 274 262 254 258 265 272 273 274 272 269 267 267 271 269 263 269 273 275
294 306 316 319 317 312 286 305 337 329 322 325 331 334 333 339 323 298 251 252 241 241 222 208 250 263 264 251 256 273 273 275 279 283 282 273 268 268 272 271 272 278 282 287
292 307 315 304 298 255 246 232 306 324 320 324 328 329 328 328 297 264 237 242 239 217 212 234 244 234 252 256 266 278 287 289 288 288 288 290 296 289 291 291 294 296 298 299
290 303 289 267 237 245 251 290 311 317 325 318 324 325 312 307 271 237 235 229 234 221 228 240 251 259 258 262 252 270 270 251 186 112 68 44 23 11 2 351 331 316 312 308
286 284 273 245 254 264 277 296 306 310 322 318 322 327 313 292 256 237 235 223 223 226 233 253 266 258 265 277 273 250 226 212 154 110 231 338 350 339 328 317 309 305 305 304
278 267 257 271 271 272 278 288 296 302 312 312 314 324 293 283 266 256 242 236 204 239 260 260 261 268 267 282 259 231 216 210 209 235 269 314 319 316 311 304 300 298 301 304
257 261 276 281 279 277 279 285 287 295 303 302 307 300 277 300 275 283 316 30 22 15 331 307 288 279 275 274 225 209 207 212 226 248 285 308 317 319 320 322 328 324 317 315
Height
3069 3063 3054 3046 3041 3036 3029 3026 3023 3020 3017 3014 3011 3011 3010 3009 3007 3005 3004 3001 2998 2996 2993 2990 2986 2983 2979 2980 2985 2991 2999 3004 3005 3009 3013 3017 3021 3024 3029 3032 3033 3032 3031 3031
3069 3062 3053 3045 3039 3035 3030 3026 3023 3020 3016 3013 3012 3012 3009 3008 3007 3007 3005 3003 3001 2998 2996 2993 2989 2987 2985 2983 2984 2987 2993 3002 3007 3009 3015 3015 3015 3018 3023 3027 3030 3028 3030 3030
3069 3061 3052 3046 3040 3035 3031 3027 3024 3020 3018 3015 3012 3011 3010 3008 3007 3005 3006 3005 3003 3000 2998 2996 2993 2990 2988 2986 2986 2987 2991 2997 3000 2998 2996 3003 3008 3012 3017 3023 3028 3026 3026 3027
3067 3060 3053 3047 3041 3035 3031 3027 3024 3022 3020 3016 3014 3013 3011 3008 3007 3005 3005 3005 3004 3001 2999 2997 2996 2994 2993 2991 2990 2987 2993 2994 2998 2998 2999 3003 3006 3008 3013 3018 3024 3026 3026 3027
3066 3060 3053 3047 3041 3035 3032 3027 3026 3022 3020 3017 3016 3013 3011 3008 3007 3007 3004 3005 3004 3002 3001 3000 2997 2996 2996 2995 2993 2993 2994 2997 2998 2999 3000 3003 3004 3010 3013 3017 3020 3023 3024 3025
3065 3059 3052 3047 3041 3034 3030 3028 3026 3024 3021 3018 3016 3012 3010 3009 3005 3006 3005 3005 3004 3003 3002 3000 2999 2998 2997 2996 2996 2996 2997 2997 2998 3000 3001 3003 3007 3004 3008 3012 3015 3019 3021 3024
3064 3058 3051 3045 3038 3034 3031 3028 3027 3024 3022 3018 3014 3013 3010 3007 3006 3004 3005 3005 3003 3004 3002 3001 2999 2999 2997 2997 2996 2996 2996 2997 2997 3000 3002 3006 3003 3001 3006 3010 3013 3016 3018 3020
3064 3058 3050 3044 3037 3032 3031 3029 3026 3024 3020 3017 3014 3009 3008 3005 3004 3002 3003 3003 3003 3003 3002 3001 2999 2999 2998 2998 2997 2997 2997 2998 2998 3000 3001 3002 3000 3001 3002 3004 3008 3011 3014 3016
3063 3058 3051 3045 3038 3032 3030 3028 3025 3022 3020 3017 3012 3011 3009 3005 3004 3003 3001 3002 3003 3003 3002 3001 2999 2999 2999 2998 2998 2997 2997 2998 3000 3000 3001 3001 3002 3002 3004 3006 3007 3008 3010 3013
3062 3056 3052 3045 3038 3033 3029 3026 3023 3020 3018 3014 3012 3008 3007 3005 3003 3002 3000 3000 3002 3003 3002 3001 3001 3000 3000 2999 2998 2998 2998 2999 2999 2999 3000 3001 3001 3002 3004 3008 3010 3005 3008 3011
3059 3055 3051 3045 3037 3033 3029 3026 3023 3019 3016 3014 3009 3005 3002 3001 2999 3000 3002 3003 3000 3002 3003 3002 3002 3001 3000 3000 3000 2999 3000 3000 3000 3000 3000 3002 3001 3002 3005 3006 3004 3006 3008 3010
3056 3052 3049 3044 3036 3031 3028 3025 3023 3017 3013 3011 3006 3003 3001 2998 2997 2997 2999 3003 3001 3001 3003 3003 3002 3002 3001 3000 3000 3000 3002 3002 3001 3002 3001 3000 3001 3002 3004 3005 3006 3007 3008 3009
3053 3050 3046 3041 3035 3029 3026 3022 3019 3015 3009 3006 3003 3001 2999 2996 2996 2996 2997 2999 3002 3002 3001 3002 3002 3002 3002 3000 3001 3000 3000 3000 3000 3001 3001 3001 3002 3003 3004 3005 3006 3007 3008 3009
3051 3047 3044 3039 3034 3029 3023 3020 3015 3011 3004 3002 3002 2994 2992 2991 2993 2994 2995 2996 2999 3001 3002 3001 3002 3002 3002 3000 3000 2999 3000 3000 2999 3000 3001 3001 3002 3003 3004 3005 3005 3006 3007 3007
3048 3044 3042 3036 3032 3027 3022 3019 3014 3009 3007 2999 2993 2992 2991 2989 2989 2990 2992 2994 2995 2998 3001 3000 3002 3001 3001 2999 2998 2996 2996 2998 2999 2999 3000 3001 3002 3002 3003 3004 3004 3005 3005 3005
3045 3042 3039 3035 3030 3025 3021 3019 3015 3008 3002 2996 2995 2995 2992 2989 2986 2986 2988 2990 2993 2995 2997 2999 2999 3000 3001 2998 2997 2997 2996 2996 2996 2997 2998 2999 2999 3000 3001 3001 3002 3002 3002 3002
3042 3039 3036 3032 3026 3023 3021 3018 3014 3008 3002 2999 2998 2998 2995 2992 2987 2987 2989 2988 2991 2994 2996 2996 2998 2999 2999 2996 2994 2996 2995 2995 2995 2995 2995 2996 2996 2997 2997 2997 2997 2997 2997 2997
3037 3036 3033 3029 3024 3020 3017 3015 3013 3010 3004 2999 2999 2997 2994 2992 2988 2988 2987 2988 2989 2991 2993 2995 2996 2996 2996 2992 2992 2991 2992 2992 2993 2992 2992 2992 2992 2993 2993 2993 2992 2992 2992 2991
3033 3033 3029 3026 3023 3018 3015 3013 3012 3011 3009 3003 3002 2997 2995 2993 2991 2992 2989 2987 2988 2990 2990 2992 2994 2992 2990 2990 2989 2990 2990 2991 2990 2990 2989 2988 2989 2989 2988 2988 2987 2986 2985 2984
3031 3029 3026 3021 3019 3014 3013 3010 3011 3009 3008 3005 3003 3000 2996 2993 2988 2989 2989 2988 2989 2987 2988 2988 2987 2983 2985 2986 2986 2986 2986 2985 2985 2984 2983 2983 2983 2983 2983 2983 2982 2982 2981 2979
3027 3024 3022 3019 3015 3011 3009 3009 3009 3007 3006 3005 3003 3000 2994 2993 2989 2989 2990 2988 2987 2986 2986 2986 2983 2979 2980 2980 2980 2980 2980 2979 2979 2978 2978 2977 2977 2977 2976 2976 2976 2976 2974 2973
3023 3021 3018 3015 3012 3009 3010 3008 3008 3006 3007 3005 3001 2998 2994 2990 2989 2988 2989 2987 2986 2983 2983 2983 2978 2977 2977 2977 2977 2977 2977 2976 2975 2973 2972 2971 2971 2970 2970 2969 2969 2969 2968 2967
3018 3017 3014 3012 3011 3010 3007 3007 3006 3006 3004 3003 2999 2994 2991 2986 2984 2983 2984 2983 2982 2981 2979 2977 2975 2974 2975 2974 2974 2974 2973 2973 2972 2970 2969 2968 2967 2966 2966 2966 2965 2965 2964 2963
3013 3011 3009 3009 3007 3006 3005 3005 3004 3003 3001 2998 2995 2992 2988 2985 2982 2981 2977 2976 2977 2976 2974 2972 2971 2972 2971 2971 2972 2971 2971 2971 2970 2970 2969 2969 2968 2967 2966 2966 2965 2964 2962 2961
3008 3007 3004 3003 3004 3002 3001 3001 2999 2998 2997 2995 2993 2989 2984 2983 2981 2977 2976 2973 2971 2970 2969 2968 2969 2969 2969 2969 2968 2969 2969 2970 2970 2970 2970 2969 2968 2966 2965 2964 2963 2961 2960 2958
3002 3001 3000 3000 3000 2999 2997 2996 2994 2993 2992 2991 2990 2986 2983 2980 2979 2975 2973 2970 2968 2967 2966 2965 2965 2965 2965 2965 2964 2965 2967 2968 2968 2969 2968 2967 2966 2965 2963 2961 2959 2957 2956 2953
2995 2994 2995 2995 2994 2994 2993 2991 2990 2989 2989 2988 2988 2985 2983 2978 2973 2971 2969 2968 2967 2966 2965 2963 2961 2960 2960 2960 2960 2962 2964 2965 2966 2966 2966 2965 2964 2962 2959 2957 2954 2953 2952 2950